TimeEDT,TemperatureF,Dew PointF,Humidity,Sea Level PressureIn,VisibilityMPH,Wind Direction,Wind SpeedMPH,Gust SpeedMPH,PrecipitationIn,Events,Conditions,WindDirDegrees,DateUTC
12:53 AM,68.0,66.0,93,30.07,10.0,NE,6.9,-,N/A,,Clear,50,2013-04-23 04:53:00
1:41 AM,66.2,64.4,94,30.06,10.0,NE,9.2,-,0.01,,Mostly Cloudy,50,2013-04-23 05:41:00
1:53 AM,66.9,64.9,93,30.06,10.0,NE,10.4,-,0.01,,Overcast,50,2013-04-23 05:53:00
2:53 AM,66.9,64.9,93,30.05,10.0,NE,10.4,-,N/A,,Overcast,50,2013-04-23 06:53:00
3:53 AM,66.9,64.0,90,30.04,10.0,NE,12.7,-,N/A,,Overcast,50,2013-04-23 07:53:00
4:53 AM,66.9,64.0,90,30.03,9.0,NE,9.2,-,0.01,,Overcast,40,2013-04-23 08:53:00
5:53 AM,66.9,64.0,90,30.04,9.0,NE,9.2,-,N/A,,Overcast,50,2013-04-23 09:53:00
6:53 AM,66.9,64.9,93,30.05,4.0,NE,11.5,-,N/A,,Overcast,50,2013-04-23 10:53:00
7:53 AM,68.0,64.9,90,30.07,7.0,NE,11.5,-,N/A,,Overcast,40,2013-04-23 11:53:00
8:53 AM,69.1,66.0,90,30.09,10.0,NE,8.1,-,N/A,,Overcast,50,2013-04-23 12:53:00
9:53 AM,72.0,66.0,81,30.10,8.0,ENE,9.2,-,0.01,,Mostly Cloudy,60,2013-04-23 13:53:00
10:28 AM,73.4,66.2,78,30.11,10.0,ENE,13.8,19.6,N/A,,Overcast,70,2013-04-23 14:28:00
10:53 AM,75.9,66.0,71,30.12,10.0,ENE,13.8,-,N/A,,Mostly Cloudy,60,2013-04-23 14:53:00
11:49 AM,80.6,66.2,61,30.11,10.0,East,13.8,-,N/A,,Mostly Cloudy,80,2013-04-23 15:49:00
11:53 AM,80.1,66.0,62,30.12,10.0,East,16.1,-,N/A,,Scattered Clouds,90,2013-04-23 15:53:00
12:53 PM,82.9,64.9,54,30.09,10.0,ENE,12.7,-,N/A,,Scattered Clouds,70,2013-04-23 16:53:00
1:53 PM,82.9,63.0,51,30.07,10.0,ENE,11.5,19.6,0.01,,Scattered Clouds,70,2013-04-23 17:53:00
2:53 PM,86.0,60.1,41,30.05,10.0,East,8.1,-,N/A,,Unknown,90,2013-04-23 18:53:00
3:53 PM,88.0,60.1,39,30.03,10.0,NE,6.9,-,N/A,,Clear,40,2013-04-23 19:53:00
4:53 PM,87.1,60.1,40,30.02,10.0,ENE,12.7,-,N/A,,Partly Cloudy,70,2013-04-23 20:53:00
5:53 PM,82.0,60.1,47,30.03,10.0,East,11.5,-,N/A,,Clear,80,2013-04-23 21:53:00
6:53 PM,82.0,60.1,47,30.04,10.0,East,12.7,-,N/A,,Clear,80,2013-04-23 22:53:00
7:53 PM,78.1,60.1,54,30.06,10.0,East,10.4,-,0.01,,Clear,80,2013-04-23 23:53:00
8:53 PM,73.9,61.0,64,30.08,10.0,East,10.4,-,N/A,,Clear,80,2013-04-24 00:53:00
9:53 PM,72.0,60.1,66,30.11,10.0,East,11.5,-,N/A,,Clear,80,2013-04-24 01:53:00
10:53 PM,70.0,60.1,71,30.12,10.0,East,11.5,20.7,N/A,,Clear,90,2013-04-24 02:53:00
11:53 PM,68.0,61.0,78,30.13,10.0,East,8.1,-,N/A,,Clear,90,2013-04-24 03:53:00